Regional Weather Roundup
Issued by NWS

Home | Current Version | Previous Version | Text Only | Print | Product List | Glossary On
Versions: 1 2 3 4 5 6 7 8 9 10 11 12 13 14 15 16 17 18 19 20 21 22 23 24 25 26 27 28 29 30 31 32 33 34 35 36 37 38 39 40 41 42 43 44 45 46 47 48 49 50
000
ASUS45 KREV 270210
RWRNV
NEVADA REGIONAL WEATHER ROUNDUP
NATIONAL WEATHER SERVICE RENO NV
700 PM PDT THU MAR 26 2015

NOTE: "FAIR" INDICATES FEW OR NO CLOUDS BELOW 12,000 FEET WITH NO
SIGNIFICANT WEATHER AND/OR OBSTRUCTIONS TO VISIBILITY.

NVZ001-003-004-270300-
WESTERN NEVADA

CITY           SKY/WX    TMP DP  RH WIND       PRES   REMARKS
RENO           PTCLDY    70  30  22 E8        30.21S
CARSON CITY    FAIR      66  27  22 NE17      30.22S
MINDEN         FAIR      68  28  22 NW13      30.23
SLIDE MTN        N/A     50  30  46 W1          N/A
PYRAMID LAKE     N/A     63 N/A N/A N1          N/A
FALLON         CLEAR     70  29  21 N7        30.20S
LOVELOCK       CLEAR     69  31  24 CALM      30.20F
HAWTHORNE      CLEAR     70  28  21 CALM      30.21S
$$

NVZ002-CAZ072-073-270300-
NORTHERN AND CENTRAL SIERRA

CITY           SKY/WX    TMP DP  RH WIND       PRES   REMARKS
S. LAKE TAHOE  CLEAR     57  35  43 MISG      30.29S
TRUCKEE        CLEAR     61  39  44 W9        30.29R
SQUAW VLY 8000   N/A     48  37  66 SW9         N/A
BLUE CANYON    CLEAR     61  36  39 SW5       30.29S
MAMMOTH LAKES  FAIR      59  18  20 E8        30.33R
BRIDGEPORT     FAIR      60  26  27 CALM      30.29R
$$

NVZ030-031-036-270300-
NORTHERN NEVADA

CITY           SKY/WX    TMP DP  RH WIND       PRES   REMARKS
ELKO           CLEAR     62  31  31 SW3       30.27F
WINNEMUCCA     CLEAR     65  32  29 N6        30.24F
WENDOVER       CLEAR     57  27  30 S6        30.31S
$$

NVZ035-037-270300-
CENTRAL NEVADA

CITY           SKY/WX    TMP DP  RH WIND       PRES   REMARKS
ELY            CLEAR     59  20  22 N7        30.30R
EUREKA           N/A     59  27  29 N7        30.29R
$$

NVZ013-014-270300-
SOUTH CENTRAL NEVADA

CITY           SKY/WX    TMP DP  RH WIND       PRES   REMARKS
TONOPAH        CLEAR     67  21  17 S5        30.26S
$$

NVZ017-020-022-270300-
SOUTHERN NEVADA

CITY           SKY/WX    TMP DP  RH WIND       PRES   REMARKS
LAS VEGAS      PTCLDY    77  21  12 CALM      30.10R
N. LAS VEGAS   CLEAR     75  19  12 E9        30.13R
NELLIS AFB     CLEAR     76  26  15 E7        30.11S
HENDERSON      CLEAR     74  25  16 NE5       30.16S
MERCURY        CLEAR     73  20  13 SE12      30.15S
$$


USA.gov is the U.S. government's official web portal to all federal, state and local government web resources and services.